EN

Hourly Weather Abu `Ushar

Today, 4 December, Friday

Time Temperature Precipitation Wind Pressure Humidity
00:00 +23°C° 0 mm 5 mps 724 mmHg 21%
01:00 +22°C° 0 mm 5 mps 724 mmHg 21%
02:00 +21°C° 0 mm 5 mps 723 mmHg 19%
03:00 +21°C° 0 mm 5 mps 724 mmHg 21%
04:00 +20°C° 0 mm 4 mps 724 mmHg 24%
05:00 +19°C° 0 mm 4 mps 724 mmHg 26%
06:00 +21°C° 0 mm 4 mps 725 mmHg 25%
07:00 +23°C° 0 mm 4 mps 725 mmHg 25%
08:00 +25°C° 0 mm 5 mps 726 mmHg 24%
09:00 +28°C° 0 mm 5 mps 726 mmHg 21%
10:00 +32°C° 0 mm 5 mps 726 mmHg 19%
11:00 +34°C° 0 mm 5 mps 726 mmHg 16%
12:00 +35°C° 0 mm 5 mps 725 mmHg 14%
13:00 +36°C° 0 mm 4 mps 724 mmHg 12%
14:00 +38°C° 0 mm 4 mps 723 mmHg 11%
15:00 +36°C° 0 mm 4 mps 723 mmHg 11%
16:00 +35°C° 0 mm 4 mps 723 mmHg 12%
17:00 +33°C° 0 mm 4 mps 723 mmHg 13%
18:00 +30°C° 0 mm 4 mps 724 mmHg 13%
19:00 +28°C° 0 mm 4 mps 724 mmHg 13%
20:00 +26°C° 0 mm 5 mps 724 mmHg 13%
21:00 +26°C° 0 mm 5 mps 725 mmHg 13%
22:00 +25°C° 0 mm 5 mps 725 mmHg 12%
23:00 +23°C° 0 mm 5 mps 725 mmHg 12%

Tomorrow, 5 December, Saturday

Time Temperature Precipitation Wind Pressure Humidity
00:00 +22°C° 0 mm 5 mps 724 mmHg 13%
01:00 +21°C° 0 mm 5 mps 724 mmHg 14%
02:00 +21°C° 0 mm 5 mps 724 mmHg 15%
03:00 +20°C° 0 mm 5 mps 724 mmHg 18%
04:00 +20°C° 0 mm 5 mps 724 mmHg 20%
05:00 +19°C° 0 mm 4 mps 724 mmHg 22%
06:00 +21°C° 0 mm 5 mps 725 mmHg 22%
07:00 +23°C° 0 mm 5 mps 725 mmHg 22%
08:00 +24°C° 0 mm 6 mps 726 mmHg 22%
09:00 +28°C° 0 mm 6 mps 726 mmHg 19%
10:00 +32°C° 0 mm 6 mps 726 mmHg 16%
11:00 +34°C° 0 mm 6 mps 726 mmHg 13%
12:00 +36°C° 0 mm 5 mps 725 mmHg 12%
13:00 +37°C° 0 mm 5 mps 724 mmHg 10%
14:00 +39°C° 0 mm 5 mps 724 mmHg 8%
15:00 +36°C° 0 mm 5 mps 724 mmHg 9%
16:00 +34°C° 0 mm 4 mps 724 mmHg 9%
17:00 +33°C° 0 mm 4 mps 724 mmHg 10%
18:00 +30°C° 0 mm 4 mps 724 mmHg 10%
19:00 +28°C° 0 mm 4 mps 724 mmHg 11%
20:00 +26°C° 0 mm 5 mps 724 mmHg 11%
21:00 +25°C° 0 mm 5 mps 724 mmHg 12%
22:00 +23°C° 0 mm 5 mps 725 mmHg 12%
23:00 +23°C° 0 mm 5 mps 725 mmHg 13%

Day after tomorrow, 6 December, Sunday

Time Temperature Precipitation Wind Pressure Humidity
00:00 +22°C° 0 mm 4 mps 724 mmHg 15%
01:00 +21°C° 0 mm 4 mps 724 mmHg 18%
02:00 +20°C° 0 mm 4 mps 724 mmHg 21%
03:00 +20°C° 0 mm 4 mps 724 mmHg 21%
04:00 +19°C° 0 mm 4 mps 724 mmHg 22%
05:00 +19°C° 0 mm 4 mps 724 mmHg 22%
06:00 +21°C° 0 mm 5 mps 725 mmHg 20%
07:00 +23°C° 0 mm 6 mps 726 mmHg 17%
08:00 +26°C° 0 mm 7 mps 727 mmHg 15%
09:00 +29°C° 0 mm 7 mps 726 mmHg 16%
10:00 +33°C° 0 mm 6 mps 726 mmHg 16%
11:00 +35°C° 0 mm 6 mps 726 mmHg 17%
12:00 +36°C° 0 mm 6 mps 725 mmHg 16%
13:00 +38°C° 0 mm 6 mps 725 mmHg 15%
14:00 +39°C° 0 mm 6 mps 724 mmHg 14%
15:00 +37°C° 0 mm 5 mps 724 mmHg 15%
16:00 +35°C° 0 mm 5 mps 723 mmHg 16%
17:00 +34°C° 0 mm 4 mps 723 mmHg 17%
18:00 +32°C° 0 mm 4 mps 724 mmHg 17%
19:00 +29°C° 0 mm 5 mps 724 mmHg 17%
20:00 +27°C° 0 mm 5 mps 724 mmHg 17%
21:00 +26°C° 0 mm 5 mps 724 mmHg 18%
22:00 +26°C° 0 mm 5 mps 724 mmHg 19%
23:00 +24°C° 0 mm 6 mps 725 mmHg 20%

7 December, Monday

Time Temperature Precipitation Wind Pressure Humidity
00:00 +23°C° 0 mm 5 mps 724 mmHg 20%
01:00 +23°C° 0 mm 5 mps 724 mmHg 20%
02:00 +22°C° 0 mm 5 mps 724 mmHg 20%
03:00 +22°C° 0 mm 5 mps 724 mmHg 21%
04:00 +21°C° 0 mm 5 mps 724 mmHg 21%
05:00 +20°C° 0 mm 5 mps 725 mmHg 22%
06:00 +22°C° 0 mm 6 mps 725 mmHg 27%
07:00 +23°C° 0 mm 6 mps 726 mmHg 32%
08:00 +26°C° 0 mm 7 mps 727 mmHg 37%
09:00 +29°C° 0 mm 7 mps 727 mmHg 31%
10:00 +33°C° 0 mm 7 mps 726 mmHg 25%
11:00 +35°C° 0 mm 8 mps 726 mmHg 18%
12:00 +36°C° 0 mm 7 mps 726 mmHg 16%
13:00 +38°C° 0 mm 7 mps 725 mmHg 14%
14:00 +39°C° 0 mm 7 mps 724 mmHg 12%
15:00 +38°C° 0 mm 6 mps 724 mmHg 13%
16:00 +35°C° 0 mm 6 mps 724 mmHg 14%
17:00 +34°C° 0 mm 5 mps 724 mmHg 15%
18:00 +32°C° 0 mm 5 mps 724 mmHg 16%
19:00 +29°C° 0 mm 5 mps 725 mmHg 17%
20:00 +27°C° 0 mm 4 mps 725 mmHg 19%
21:00 +26°C° 0 mm 5 mps 725 mmHg 19%
22:00 +25°C° 0 mm 5 mps 725 mmHg 20%
23:00 +23°C° 0 mm 5 mps 725 mmHg 21%

8 December, Tuesday

Time Temperature Precipitation Wind Pressure Humidity
00:00 +22°C° 0 mm 5 mps 725 mmHg 25%
01:00 +22°C° 0 mm 5 mps 725 mmHg 29%
02:00 +21°C° 0 mm 5 mps 724 mmHg 33%
03:00 +20°C° 0 mm 4 mps 725 mmHg 33%
04:00 +20°C° 0 mm 4 mps 725 mmHg 33%
05:00 +19°C° 0 mm 4 mps 725 mmHg 32%
06:00 +21°C° 0 mm 5 mps 725 mmHg 30%
07:00 +23°C° 0 mm 7 mps 726 mmHg 28%
08:00 +26°C° 0 mm 8 mps 726 mmHg 26%
09:00 +29°C° 0 mm 8 mps 726 mmHg 21%
10:00 +33°C° 0 mm 8 mps 726 mmHg 16%
11:00 +37°C° 0 mm 9 mps 726 mmHg 12%
12:00 +38°C° 0 mm 9 mps 725 mmHg 11%
13:00 +39°C° 0 mm 9 mps 725 mmHg 9%
14:00 +40°C° 0 mm 9 mps 724 mmHg 8%
15:00 +38°C° 0 mm 8 mps 724 mmHg 8%
16:00 +36°C° 0 mm 7 mps 724 mmHg 9%
17:00 +34°C° 0 mm 5 mps 724 mmHg 9%
18:00 +32°C° 0 mm 5 mps 724 mmHg 10%
19:00 +29°C° 0 mm 5 mps 724 mmHg 12%
20:00 +27°C° 0 mm 5 mps 725 mmHg 13%
21:00 +26°C° 0 mm 5 mps 725 mmHg 14%
22:00 +25°C° 0 mm 5 mps 725 mmHg 16%
23:00 +23°C° 0 mm 4 mps 725 mmHg 17%

9 December, Wednesday

Time Temperature Precipitation Wind Pressure Humidity
00:00 +22°C° 0 mm 4 mps 725 mmHg 21%
01:00 +22°C° 0 mm 4 mps 724 mmHg 24%
02:00 +21°C° 0 mm 4 mps 724 mmHg 28%
03:00 +20°C° 0 mm 4 mps 724 mmHg 28%
04:00 +20°C° 0 mm 4 mps 724 mmHg 29%
05:00 +19°C° 0 mm 4 mps 724 mmHg 30%
06:00 +21°C° 0 mm 6 mps 725 mmHg 27%
07:00 +23°C° 0 mm 7 mps 725 mmHg 25%
08:00 +24°C° 0 mm 8 mps 726 mmHg 23%
09:00 +28°C° 0 mm 8 mps 726 mmHg 20%
10:00 +32°C° 0 mm 8 mps 725 mmHg 16%
11:00 +34°C° 0 mm 8 mps 725 mmHg 13%
12:00 +35°C° 0 mm 8 mps 725 mmHg 12%
13:00 +38°C° 0 mm 8 mps 724 mmHg 11%
14:00 +39°C° 0 mm 8 mps 723 mmHg 10%
15:00 +38°C° 0 mm 7 mps 723 mmHg 12%
16:00 +35°C° 0 mm 6 mps 723 mmHg 13%
17:00 +34°C° 0 mm 5 mps 723 mmHg 15%
18:00 +32°C° 0 mm 5 mps 723 mmHg 16%
19:00 +29°C° 0 mm 5 mps 723 mmHg 18%
20:00 +27°C° 0 mm 5 mps 724 mmHg 19%
21:00 +26°C° 0 mm 5 mps 724 mmHg 21%
22:00 +25°C° 0 mm 5 mps 724 mmHg 23%
23:00 +23°C° 0 mm 5 mps 724 mmHg 25%
Show more